Regional Weather Roundup
Issued by NWS Kansas City/Pleasant Hill, MO

Home | Current Version | Previous Version | Text Only | Print | Product List | Glossary On
Versions: 1 2 3 4 5 6 7 8 9 10 11 12 13 14 15 16 17 18 19 20 21 22 23 24 25 26 27 28 29 30 31 32 33 34 35 36 37 38 39 40 41 42 43 44 45 46 47 48 49 50
000
ASUS43 KEAX 300211
RWREAX

WEATHER ROUNDUP FOR EASTERN KANSAS AND NORTHWEST MISSOURI
NATIONAL WEATHER SERVICE KANSAS CITY/PLEASANT HILL MO
900 PM CDT SUN MAR 29 2015

KSZ040-057-103>105-MOZ028-029-037-043-300300-
...KANSAS CITY METROPOLITAN AREA...

CITY           SKY/WX    TMP DP  RH WIND       PRES   REMARKS
K.C. INTL      CLEAR     53  36  52 NW6       30.13R
K.C. DOWNTOWN  CLEAR     57  36  45 CALM      30.12R
LEES SUMMIT    CLEAR     53  37  54 N8        30.13R
OLATHE - IXD   CLEAR     50  37  61 NW6       30.14R
OLATHE - OJC   CLEAR     55  37  50 N8        30.12R
LAWRENCE       CLEAR     49  35  58 N3        30.14R

$$

MOZ001>008-011>017-020>025-030>033-038>040-044>046-053-054-300300-
...NORTHERN AND CENTRAL MISSOURI...

CITY           SKY/WX    TMP DP  RH WIND       PRES   REMARKS
ST. JOSEPH     CLEAR     47  32  56 NW6       30.13R
MOSBY          CLEAR     50  36  57 CALM      30.12R
WARRENSBURG    CLEAR     54  37  54 NW8       30.12R
WHITEMAN AFB   CLEAR     54  40  58 N10       30.11R
CLINTON        CLEAR     57  43  58 N12       30.11R
SEDALIA        CLEAR     55  41  59 NW13      30.11R
WARSAW         NOT AVBL
MARSHALL       CLEAR     54  41  62 NW6       30.12R
CHILLICOTHE      N/A     53  35  50 W5        30.10R
MOBERLY        CLEAR     52  36  54 W7        30.08R
KIRKSVILLE     CLEAR     49  36  61 W6        30.05R

$$

MOZ041-047>049-056>058-063>065-088>090-097-300300-
...EASTERN AND SOUTHERN MISSOURI...

CITY           SKY/WX    TMP DP  RH WIND       PRES   REMARKS
ST. LOUIS INTL MOCLDY    51  38  60 CALM      30.02R
SPIRIT OF STL  MOCLDY    45  38  76 CALM      30.02R
COLUMBIA       FAIR      55  42  61 NW16      30.07R
JEFFERSON CITY MOCLDY    56  42  59 NW8       30.07R
MEXICO         PTCLDY    55  46  71 NW13      30.04R
HANNIBAL       CLEAR     54  36  50 W7        30.04R
ROLLA          PTCLDY    45  38  76 SW9       30.05R
LEBANON        PTCLDY    50  41  71 SW5       30.10R
OSAGE BEACH    PTCLDY    52  37  58 W5        30.08R
SPRINGFIELD    PTCLDY    49  41  74 S3        30.10R
BRANSON        PTCLDY    55  45  67 CALM      30.11R
NEVADA         CLEAR     55  45  67 NW6       30.13R
JOPLIN         CLEAR     55  41  59 SW3       30.11R
WEST PLAINS    CLOUDY    56  41  57 NW3       30.09R

$$

IAZ060-094-KSZ022-034>040-054-083-096-NEZ052-066-093-300300-
...KANSAS...SOUTHEAST NEBRASKA AND IOWA...

CITY           SKY/WX    TMP DP  RH WIND       PRES   REMARKS
TOPEKA         CLEAR     54  34  46 NW5       30.14R
MANHATTAN      CLEAR     50  31  48 CALM      30.15R
EMPORIA        CLEAR     55  35  47 N8        30.14R
CHANUTE        CLEAR     60  39  45 N12       30.12R
WICHITA        CLEAR     62  31  31 N7        30.13R
OMAHA          CLEAR     55  21  26 W7        30.10R
LINCOLN        CLEAR     45  24  43 NW3       30.14R
FALLS CITY     CLEAR     50  27  40 NW5       30.12R
LAMONI         CLEAR     45  31  58 W9        30.07R
DES MOINES     CLEAR     54  21  27 NW12      30.05R

$$




USA.gov is the U.S. government's official web portal to all federal, state and local government web resources and services.